Location: Haliburton Scout Reserve
(45.0900°N, 78.3200°W)
Time: 15:07:38
(UTC-04:00)

IDEFIX/ARIANE 42P - Visible Passes

Search period start: 19 April 2015 00:00
Search period end: 29 April 2015 00:00
Orbit: 785 x 804 km, 98.3° (Epoch: 18 April)

Date Brightness Start Highest point End Pass type
(mag) Time Alt. Az. Time Alt. Az. Time Alt. Az.
19 Apr 3.8 20:50:06 10° S 20:55:01 43° W 20:59:56 10° NNW visible
21 Apr 5.2 21:35:02 10° SW 21:38:36 18° W 21:42:00 10° NW visible
22 Apr 4.4 21:05:25 10° SSW 21:10:01 31° W 21:14:36 10° NNW visible
23 Apr 3.4 20:36:32 10° S 20:41:37 56° W 20:46:43 10° NNW visible
24 Apr 5.4 21:51:17 10° WSW 21:53:45 13° W 21:55:56 10° WNW visible
25 Apr 4.9 21:20:57 10° SW 21:25:05 23° W 21:29:07 10° NW visible
26 Apr 4.0 20:51:43 10° SSW 20:56:34 40° W 21:01:27 10° NNW visible
28 Apr 5.2 21:36:45 10° SW 21:40:11 17° W 21:43:25 10° NW visible
